Flight Track Log - Related Links

Times and Time Zones

All times are in EDT time to prevent confusion due to time zone crossing. See the SWA2336 flight status page for this flight to view local times or setup timezone preferences in your user account.

Time Position Orientation Groundspeed Altitude Reporting Facility
EDT Latitude Longitude Course Direction KTS MPH feet Rate Location/Type
Sun 02:40:38 PM 32.7667 -96.8000 164° South 225 259 4,200  Level Dallas / Fort Worth TRACON
Sun 02:41:38 PM 32.7000 -96.8333 203° Southwest 248 285 7,300 2,727 Climbing Dallas / Fort Worth TRACON
Sun 02:43:56 PM 32.7094 -97.0036 274° West 259 298 13,200 2,515 Climbing Fort Worth Center
Sun 02:44:56 PM 32.7411 -97.0947 292° West 311 358 15,600 2,281 Climbing Fort Worth Center
Sun 02:45:00 PM 32.9673 -97.4357 287° West  Level FlightAware Approximate
Sun 02:45:57 PM 32.7853 -97.2083 295° West 337 388 17,800  Level Fort Worth Center
Sun 02:46:57 PM 32.8208 -97.3047 294° West 352 405 20,200 2,420 Climbing Fort Worth Center
Sun 02:47:56 PM 32.8647 -97.4233 294° West 359 413 22,600 1,800 Climbing Fort Worth Center
Sun 02:48:57 PM 32.8958 -97.5494 286° West 366 421 23,800 2,132 Climbing Fort Worth Center
Sun 02:49:57 PM 32.9186 -97.6733 282° West 389 448 26,900 2,281 Climbing Fort Worth Center
Sun 02:50:58 PM 32.9433 -97.7872 285° West 368 423 28,400 1,462 Climbing Fort Worth Center
Sun 02:51:56 PM 32.9681 -97.9086 284° West 368 423 29,800 1,462 Climbing Fort Worth Center
Sun 02:52:57 PM 32.9906 -98.0153 284° West 379 436 31,300 1,279 Climbing Fort Worth Center
Sun 02:53:58 PM 33.0150 -98.1369 284° West 374 430 32,400 1,240 Climbing Fort Worth Center
Sun 02:54:58 PM 33.0372 -98.2583 282° West 374 430 33,800 814 Climbing Fort Worth Center
Sun 02:55:56 PM 33.0614 -98.3753 284° West 374 430 34,000 102 Climbing Fort Worth Center
Sun 02:56:56 PM 33.0875 -98.5044 284° West 374 430 34,000  Level Fort Worth Center
Sun 02:57:57 PM 33.1092 -98.6261 282° West 374 430 34,000 492 Level Fort Worth Center
Sun 02:58:58 PM 33.1353 -98.7481 284° West 374 430 35,000 942 Climbing Fort Worth Center
Sun 02:59:58 PM 33.1567 -98.8675 282° West 374 430 35,900 508 Climbing Fort Worth Center
Sun 03:00:56 PM 33.1825 -98.9894 284° West 374 430 36,000 51 Climbing Fort Worth Center
Sun 03:01:56 PM 33.2039 -99.1092 282° West 374 430 36,000  Level Fort Worth Center
Sun 03:02:56 PM 33.2272 -99.2289 283° West 374 430 36,000  Level Fort Worth Center
Sun 03:03:57 PM 33.2506 -99.3508 283° West 374 430 36,000  Level Fort Worth Center
Sun 03:04:58 PM 33.2736 -99.4708 283° West 374 430 36,000  Level Fort Worth Center
Sun 03:05:56 PM 33.2944 -99.5906 282° West 374 430 36,000  Level Fort Worth Center
Sun 03:06:56 PM 33.3175 -99.7103 283° West 374 430 36,000  Level Fort Worth Center
Sun 03:07:57 PM 33.3403 -99.8303 283° West 374 430 36,000  Level Fort Worth Center
Sun 03:08:57 PM 33.3628 -99.9528 282° West 374 430 36,000 -450 Level Fort Worth Center
Sun 03:09:57 PM 33.3833 -100.0703 282° West 374 430 35,100 -1,488 Descending Fort Worth Center
Sun 03:10:58 PM 33.4058 -100.1881 283° West 374 430 33,000 -2,479 Descending Fort Worth Center
Sun 03:11:58 PM 33.4261 -100.3056 282° West 369 425 30,100 -2,695 Descending Fort Worth Center
Sun 03:12:56 PM 33.4464 -100.4233 282° West 369 425 27,700 -2,471 Descending Fort Worth Center
Sun 03:13:57 PM 33.4644 -100.5358 281° West 362 417 25,200 -2,262 Descending Fort Worth Center
Sun 03:14:58 PM 33.4825 -100.6436 281° West 350 403 23,100 -2,066 Descending Fort Worth Center
Sun 03:15:59 PM 33.5028 -100.7514 283° West 336 387 21,000 -2,085 Descending Fort Worth Center
Sun 03:16:56 PM 33.5186 -100.8542 280° West 326 375 19,000 -2,129 Descending Fort Worth Center
Sun 03:17:32 PM 33.5275 -100.9119 280° West 311 358 17,700 -2,200 Descending Fort Worth Center
Sun 03:17:56 PM 33.5389 -100.9522 289° West 315 362 16,800 -1,967 Descending Fort Worth Center
Sun 03:18:33 PM 33.5456 -101.0147 277° West 309 356 15,700 -1,770 Descending Fort Worth Center
Sun 03:18:57 PM 33.5547 -101.0550 285° West 315 362 15,000 -2,000 Descending Fort Worth Center
Sun 03:19:39 PM 33.5631 -101.1300 278° West 310 357 13,500 -2,066 Descending Fort Worth Center
Sun 03:19:58 PM 33.5706 -101.1553 290° West 315 362 12,900 -1,964 Descending Fort Worth Center
Sun 03:20:34 PM 33.5811 -101.2231 281° West 303 349 11,700 -1,600 Descending Fort Worth Center
Sun 03:20:58 PM 33.5864 -101.2533 282° West 315 362 11,300 -2,361 Descending Fort Worth Center
Sun 03:21:35 PM 33.5928 -101.3158 277° West 291 335 9,300 -2,586 Descending Fort Worth Center
Sun 03:21:56 PM 33.6044 -101.3489 293° West 299 344 8,800 -985 Descending Fort Worth Center
Sun 03:22:42 PM 33.6106 -101.4139 276° West 273 314 8,200 -787 Descending Fort Worth Center
Sun 03:22:57 PM 33.6161 -101.4342 288° West 284 327 8,000 -590 Descending Fort Worth Center
Sun 03:23:43 PM 33.6225 -101.4967 277° West 250 288 7,600 -393 Descending Fort Worth Center
Sun 03:23:58 PM 33.6303 -101.5172 294° West 262 302 7,600 -1,343 Level Fort Worth Center
Sun 03:24:50 PM 33.6403 -101.5950 279° West 259 298 6,100 -958 Descending Fort Worth Center
Sun 03:25:57 PM 33.6561 -101.6806 283° West 247 284 5,700 -605 Descending Fort Worth Center
Sun 03:26:49 PM 33.6606 -101.7331 276° West 146 168 4,900 -1,091 Descending Fort Worth Center
Sun 03:27:58 PM 33.6608 -101.7831 270° West 144 166 3,500 -797 Descending Fort Worth Center
Sun 03:28:57 PM 33.6575 -101.8178 263° West 144 166 3,200 -101 Descending Fort Worth Center
Sun 03:29:57 PM 33.6575 -101.8178 263° West 93 107 3,300  Climbing Fort Worth Center
Sun 03:30:57 PM 33.6575 -101.8178 90° East 11 13 3,200 -100 Descending Fort Worth Center
Sun 03:32:00 PM 33.6500 -101.8167 North  Level FlightAware Approximate
Sun 03:39:00 PM 33.6637 -101.8206 North  Level Estimated
Sun 03:40:00 PM 33.6637 -101.8206 North  Level Estimated
Sun 03:41:00 PM 33.6637 -101.8206 North  Level Estimated
Sun 03:42:00 PM 33.6637 -101.8206 North  Level Estimated
Sun 03:43:00 PM 33.6637 -101.8206 North  Level Estimated
Sun 03:44:00 PM 33.6637 -101.8206 North  Level Estimated
Sun 03:45:00 PM 33.6637 -101.8206 North  Level Estimated
Sun 03:46:00 PM 33.6637 -101.8206 North  Level Estimated

Login

Don't have an account? Register now (free) for customized features, flight alerts, and more!